Date,TemperatureHighF,TemperatureAvgF,TemperatureLowF,DewpointHighF,DewpointAvgF,DewpointLowF,HumidityHigh,HumidityAvg,HumidityLow,PressureMaxIn,PressureMinIn,WindSpeedMaxMPH,WindSpeedAvgMPH,GustSpeedMaxMPH,PrecipitationSumIn
2013-1-1,28.0,11.2,-2.0,26.0,8.4,-5.0,95,88,79,30.11,29.86,9,2,18,0.00
2013-1-2,30.0,25.8,18.0,28.0,22.9,14.0,94,89,85,30.26,29.86,14,9,22,0.00
2013-1-3,29.0,21.4,17.0,18.0,15.5,13.0,89,78,62,30.26,29.97,8,5,16,0.01
2013-1-4,27.0,18.7,9.0,18.0,12.6,6.0,91,77,65,30.07,29.91,5,2,8,0.01
2013-1-5,21.0,14.4,9.0,18.0,11.4,6.0,92,88,83,30.11,29.88,17,5,28,0.00
2013-1-6,26.0,16.0,6.0,21.0,13.1,3.0,91,88,78,30.11,29.72,6,2,10,0.00
2013-1-7,34.0,27.4,12.0,27.0,20.9,9.0,100,77,67,29.84,29.73,10,4,19,0.00
2013-1-8,39.0,27.1,8.0,32.0,22.8,5.0,95,84,71,29.90,29.59,12,4,23,0.00
2013-1-9,35.0,26.3,15.0,28.0,19.1,-99.9,91,79,72,30.07,29.80,8,3,20,0.00
2013-1-10,30.0,28.1,25.0,27.0,25.6,23.0,92,90,88,29.80,29.71,5,1,7,0.00
2013-2-4,37.0,36.0,34.0,32.0,31.0,29.0,84,82,80,29.61,29.59,7,4,16,0.00
2013-2-5,35.0,27.8,20.0,30.0,23.7,17.0,89,84,74,29.93,29.60,13,4,21,0.01
2013-2-6,39.0,26.7,20.0,32.0,23.6,18.0,94,88,74,30.04,29.70,11,4,16,0.01
2013-2-7,25.0,20.1,16.0,24.0,18.4,14.0,95,93,91,30.16,30.03,6,2,13,0.00
2013-2-8,28.0,24.0,20.0,26.0,22.9,19.0,96,94,93,30.11,29.88,9,4,18,0.00
2013-2-9,27.0,24.6,21.0,26.0,23.4,20.0,96,95,90,32.00,29.78,5,2,8,0.00
2013-2-10,28.0,22.4,19.0,26.0,20.8,16.0,96,93,87,29.90,29.69,18,9,32,0.00
2013-2-11,24.0,20.8,18.0,19.0,17.9,15.0,94,89,81,30.01,29.80,18,8,27,0.00
2013-2-12,37.0,29.3,21.0,30.0,23.7,17.0,89,80,72,29.86,29.74,10,4,16,0.00
2013-2-13,34.0,31.5,30.0,29.0,22.2,-99.9,85,80,81,29.75,29.69,4,2,9,0.00
2013-2-17,43.0,38.6,33.0,35.0,32.7,29.0,90,80,68,29.55,29.43,16,6,26,0.00
2013-2-18,32.0,12.7,-1.0,29.0,9.0,-7.0,92,85,77,30.21,29.55,18,14,30,0.00
2013-2-19,4.0,-4.3,-12.0,-4.0,-10.0,-17.0,81,76,65,30.36,30.21,7,4,13,0.00
2013-2-20,14.0,3.3,-8.0,9.0,-1.8,-12.0,88,79,68,30.30,30.05,9,5,19,0.00
2013-2-21,24.0,17.2,13.0,16.0,12.6,10.0,90,82,64,30.13,30.05,6,3,14,0.00
2013-2-22,29.0,17.6,10.0,20.0,12.8,7.0,90,81,67,30.05,29.78,6,1,8,0.00
2013-2-23,37.0,19.8,7.0,29.0,15.8,4.0,91,85,70,31.91,29.67,5,1,10,0.00
2013-2-24,32.0,26.3,16.0,26.0,22.7,14.0,95,86,76,30.03,29.78,13,5,23,0.00
2013-2-25,45.0,27.6,12.0,30.0,20.6,10.0,93,77,49,30.02,29.83,13,3,19,0.00
2013-2-26,45.0,30.8,18.0,30.0,23.8,16.0,92,77,49,30.06,29.84,9,2,17,0.00
2013-2-27,30.0,29.1,28.0,28.0,27.1,27.0,94,92,90,30.08,30.06,7,6,11,0.00
2013-3-5,13.0,9.9,6.0,10.0,7.5,3.0,90,90,89,30.36,30.33,2,0,4,0.00
2013-3-6,22.0,11.3,2.0,18.0,8.3,0.0,91,87,81,30.35,30.05,6,2,17,0.00
2013-3-7,29.0,23.0,15.0,26.0,20.3,12.0,93,89,84,30.12,29.96,7,3,13,0.00
2013-3-8,33.0,24.6,16.0,26.0,21.8,14.0,94,89,76,30.16,29.96,4,2,10,0.03
2013-3-9,32.0,24.4,15.0,29.0,21.8,12.0,95,89,80,30.10,29.86,14,7,23,0.01
2013-3-10,25.0,16.4,9.0,17.0,12.0,6.0,90,83,70,30.25,30.02,14,5,20,0.00
2013-3-11,37.0,25.2,12.0,29.0,20.2,9.0,92,82,63,30.02,29.78,20,8,35,0.00
2013-3-12,26.0,19.4,7.0,24.0,15.3,3.0,93,84,66,30.27,29.91,17,10,30,0.00
2013-3-13,7.0,4.6,3.0,4.0,1.7,0.0,89,88,84,30.27,30.23,2,0,2,0.00
2013-3-15,11.0,9.1,7.0,8.0,6.1,2.0,88,87,86,30.12,30.01,7,5,12,0.00
2013-3-16,17.0,8.1,-1.0,11.0,3.7,-4.0,89,82,74,30.17,30.11,9,3,13,0.00
2013-3-17,25.0,17.1,9.0,24.0,14.1,4.0,94,88,81,30.11,29.45,12,5,26,0.00
2013-3-18,23.0,11.5,5.0,21.0,5.4,1.0,90,77,62,29.97,29.51,23,13,39,0.00
2013-3-19,16.0,9.5,1.0,10.0,4.6,-2.0,88,80,67,30.35,29.95,16,6,26,0.00
2013-3-20,26.0,11.6,-1.0,12.0,4.6,-4.0,90,74,50,30.35,30.03,5,2,13,0.00
2013-3-21,27.0,13.7,3.0,16.0,7.4,-2.0,84,76,53,30.03,29.89,7,4,17,0.00
2013-3-22,28.0,17.5,12.0,23.0,13.7,8.0,90,85,76,30.05,29.94,5,2,11,0.05
2013-3-23,23.0,19.6,17.0,18.0,16.1,14.0,92,86,74,30.18,30.05,9,4,15,0.01
2013-3-24,25.0,18.5,14.0,21.0,15.5,12.0,92,88,78,30.27,30.12,12,6,20,0.00
2013-3-25,25.0,15.3,5.0,18.0,11.0,2.0,89,83,73,30.34,30.27,9,4,13,0.00
2013-3-26,33.0,18.0,5.0,23.0,13.1,2.0,91,82,60,30.28,30.11,7,2,13,0.01
2013-3-27,39.0,22.9,10.0,31.0,18.9,8.0,93,85,71,30.16,30.11,4,1,10,0.01
2013-3-28,48.0,29.4,18.0,37.0,25.8,16.0,95,87,64,30.15,30.11,4,1,8,0.00
2013-3-29,49.0,32.7,21.0,40.0,27.7,-99.9,96,86,67,30.15,29.95,9,1,16,0.00
2013-3-30,51.0,38.0,30.0,37.0,31.7,-99.9,97,82,52,30.01,29.95,15,6,27,0.00
2013-3-31,34.0,28.6,26.0,27.0,23.7,19.0,87,81,74,30.07,29.99,12,5,20,0.00
2013-4-6,44.0,37.8,33.0,38.0,32.9,30.0,96,83,73,29.84,29.65,15,8,24,0.00
2013-4-7,51.0,37.0,31.0,40.0,31.3,-99.9,96,86,66,29.85,29.65,9,3,17,0.04
2013-4-8,33.0,24.5,15.0,32.0,22.9,12.0,97,93,87,30.29,29.70,16,8,29,0.01
2013-4-9,28.0,19.4,12.0,20.0,14.5,9.0,88,81,64,30.39,30.28,15,8,24,0.00
2013-4-10,24.0,23.5,23.0,20.0,19.5,19.0,86,85,83,30.36,30.19,10,6,14,0.00
2013-4-14,29.0,28.3,27.0,28.0,27.3,26.0,97,96,96,29.61,29.56,17,12,26,0.00
2013-4-15,32.0,29.3,28.0,32.0,28.6,27.0,98,97,97,30.04,29.59,18,11,29,0.01
2013-4-16,32.0,27.5,23.0,32.0,26.7,22.0,98,97,95,30.33,30.03,7,3,11,0.01
2013-4-17,30.0,26.2,22.0,29.0,25.2,21.0,97,96,95,30.35,30.19,10,4,18,0.00
2013-4-18,31.0,25.6,19.0,30.0,24.2,17.0,96,94,93,30.19,29.97,13,8,23,0.00
2013-4-19,34.0,27.7,20.0,27.0,22.9,18.0,94,83,66,30.06,29.93,10,5,18,0.00
2013-4-20,34.0,26.6,15.0,30.0,21.2,12.0,91,81,62,30.09,29.95,14,5,26,0.00
2013-4-21,38.0,33.7,28.0,35.0,29.4,24.0,96,85,69,30.20,29.87,19,9,28,0.03
2013-4-22,33.0,28.1,22.0,25.0,20.3,-99.9,88,75,57,30.37,30.20,13,7,20,0.02
2013-4-23,46.0,31.4,16.0,29.0,20.9,13.0,91,68,42,30.35,29.97,11,3,21,0.00
2013-4-24,39.0,32.3,24.0,33.0,25.7,19.0,96,78,51,30.06,29.91,20,7,32,0.03
2013-4-25,24.0,22.8,21.0,20.0,19.1,18.0,88,86,82,30.05,30.02,1,0,2,0.03
2013-5-5,66.0,58.7,45.0,34.0,29.1,27.0,52,33,24,30.24,30.11,8,3,17,0.00
2013-5-6,74.0,55.7,33.0,37.0,31.8,27.0,82,45,21,30.12,29.98,7,1,15,0.00
2013-5-7,77.0,60.0,41.0,44.0,39.0,31.0,86,50,24,29.99,29.83,9,2,15,0.00
2013-5-8,68.0,56.6,44.0,46.0,42.2,34.0,87,60,42,30.17,29.89,11,5,19,0.00
2013-5-9,64.0,49.8,34.0,34.0,27.8,23.0,74,46,23,30.25,30.14,8,4,16,0.00
2013-5-10,70.0,51.7,33.0,43.0,29.3,-99.9,82,48,28,30.24,29.99,20,8,32,0.00
2013-5-11,55.0,43.2,31.0,29.0,22.1,-99.9,86,48,21,30.41,30.22,10,5,19,0.00
2013-5-12,72.0,51.3,28.0,34.0,25.0,16.0,73,40,18,30.24,29.87,11,4,19,0.00
2013-5-13,88.0,72.4,54.0,50.0,41.0,31.0,49,34,20,29.87,29.63,16,6,30,0.00
2013-5-14,74.0,66.7,59.0,58.0,48.2,38.0,88,54,28,29.70,29.50,17,7,32,0.00
2013-5-15,77.0,69.4,51.0,46.0,38.2,32.0,67,34,20,29.91,29.86,12,5,25,0.00
2013-5-16,57.0,54.0,52.0,41.0,39.1,37.0,62,57,50,29.89,29.88,2,0,4,0.00
2013-5-20,53.0,53.0,53.0,52.0,52.0,52.0,96,96,96,29.61,29.61,9,9,18,0.00
2013-5-21,48.0,45.9,44.0,46.0,44.3,42.0,96,94,91,29.90,29.82,14,9,22,0.10
2013-5-24,62.0,59.1,56.0,54.0,52.7,51.0,85,79,73,30.03,29.95,7,4,16,0.00
2013-5-25,74.0,59.5,49.0,62.0,53.2,-99.9,98,86,62,30.06,29.95,9,3,19,0.22
2013-5-26,74.0,61.0,52.0,63.0,56.5,51.0,100,86,64,30.01,29.83,13,4,23,0.31
2013-5-27,61.0,56.2,52.0,58.0,52.3,-99.9,98,93,88,29.94,29.67,9,3,16,0.27
2013-5-28,75.0,63.1,52.0,58.0,54.9,51.0,98,78,51,29.71,29.62,8,3,16,0.27
2013-5-29,79.0,65.6,54.0,62.0,56.8,52.0,93,75,50,29.67,29.53,7,2,13,0.01
2013-5-30,72.0,61.3,58.0,63.0,59.2,57.0,98,93,73,29.56,29.31,9,4,19,0.66
2013-5-31,64.0,56.6,49.0,61.0,54.9,47.0,97,94,88,29.79,29.30,18,9,30,0.10
2013-6-1,62.0,53.5,47.0,48.0,45.7,41.0,95,76,53,30.11,29.79,17,9,30,0.03
2013-6-2,68.0,54.9,40.0,49.0,43.4,38.0,97,69,42,30.12,29.97,6,2,13,0.00
2013-6-3,54.0,49.8,46.0,50.0,45.9,41.0,93,87,73,29.98,29.81,7,3,20,0.10
2013-6-4,57.0,51.4,49.0,52.0,49.0,46.0,97,91,82,30.00,29.83,10,4,17,0.05
2013-6-5,61.0,53.3,49.0,53.0,50.3,48.0,98,90,71,30.12,30.00,12,5,19,0.03
2013-6-6,72.0,59.2,46.0,54.0,47.4,43.0,97,70,39,30.10,30.02,5,1,12,0.00
2013-6-7,77.0,62.9,49.0,57.0,51.5,46.0,93,69,37,30.03,29.72,8,3,13,0.00
2013-6-8,63.0,59.7,56.0,61.0,54.9,-99.9,96,90,76,29.84,29.69,9,4,16,0.19
2013-6-9,76.0,64.2,54.0,60.0,54.3,50.0,99,74,42,29.89,29.76,8,2,14,0.01
2013-6-10,82.0,66.9,56.0,63.0,56.8,52.0,96,72,45,29.86,29.74,9,3,18,0.00
2013-6-11,82.0,69.6,58.0,59.0,54.1,50.0,85,61,33,29.93,29.86,5,1,11,0.02
2013-6-12,63.0,61.3,60.0,58.0,57.2,56.0,93,87,81,29.98,29.85,7,3,14,0.02
2013-6-23,75.0,69.0,62.0,59.0,56.0,53.0,86,64,49,29.78,29.72,13,6,23,1.27
2013-6-24,88.0,72.1,54.0,69.0,57.9,-99.9,93,67,39,29.80,29.66,8,3,19,0.00
2013-6-25,86.0,74.7,66.0,75.0,68.7,63.0,96,82,66,29.69,29.60,10,4,17,0.00
2013-6-26,87.0,73.6,60.0,67.0,61.0,57.0,91,67,44,29.90,29.68,11,4,22,0.00
2013-6-27,82.0,71.4,60.0,61.0,54.4,-99.9,81,60,37,30.03,29.90,13,5,26,0.00
2013-6-28,81.0,70.4,60.0,61.0,56.7,54.0,83,64,45,30.10,30.03,14,5,23,0.00
2013-6-29,78.0,68.6,58.0,62.0,57.6,53.0,85,69,52,30.11,30.05,9,4,18,0.00
2013-6-30,83.0,71.7,62.0,63.0,57.2,53.0,86,63,38,30.20,30.10,5,2,11,0.00
2013-7-1,83.0,70.5,54.0,60.0,55.0,51.0,93,62,36,30.28,30.18,7,2,13,0.00
2013-7-2,85.0,71.8,54.0,60.0,54.6,52.0,95,59,33,30.19,30.05,7,2,14,0.00
2013-7-3,88.0,73.2,56.0,60.0,54.6,-99.9,93,58,32,30.05,29.79,10,3,19,0.00
2013-7-4,86.0,70.0,62.0,70.0,56.5,-99.9,93,70,37,29.80,29.69,8,3,16,0.20
2013-7-9,67.0,61.7,58.0,58.0,55.5,53.0,86,80,72,30.12,30.09,2,1,6,0.25
2013-7-10,83.0,70.7,51.0,62.0,57.4,49.0,94,66,44,30.14,29.98,5,1,11,0.03
2013-7-11,92.0,75.8,61.0,74.0,65.6,57.0,89,72,49,29.98,29.67,11,4,22,0.00
2013-7-12,89.0,80.1,73.0,73.0,68.0,61.0,86,68,41,29.89,29.63,10,3,17,0.00
2013-7-13,91.0,78.2,64.0,70.0,64.6,61.0,96,66,39,29.99,29.86,13,3,24,0.00
2013-7-14,73.0,67.7,62.0,64.0,61.0,58.0,93,79,67,30.22,29.98,12,5,22,0.00
2013-7-15,84.0,72.9,65.0,72.0,66.3,60.0,89,81,65,30.19,29.95,12,4,22,0.00
2013-7-16,91.0,77.0,66.0,71.0,65.3,62.0,88,69,43,30.18,29.96,15,4,21,0.00
2013-7-17,92.0,77.3,64.0,72.0,66.2,60.0,91,71,46,30.18,29.99,7,3,13,0.00
2013-7-18,89.0,77.6,66.0,73.0,67.7,58.0,93,73,47,29.99,29.82,13,4,21,0.00
2013-7-19,85.0,72.2,58.0,61.0,57.4,55.0,93,63,36,30.00,29.88,12,5,27,0.00
2013-7-20,72.0,63.9,59.0,61.0,56.8,-99.9,94,80,62,30.02,29.93,7,2,19,0.06
2013-7-21,87.0,68.3,55.0,67.0,60.3,53.0,94,78,47,29.95,29.62,14,4,25,0.45
2013-7-22,74.0,65.8,59.0,64.0,58.1,55.0,94,78,54,29.98,29.75,10,4,17,0.45
2013-7-23,77.0,64.9,54.0,62.0,56.9,52.0,96,77,53,30.08,29.96,5,1,10,0.00
2013-7-24,82.0,69.7,55.0,63.0,58.7,53.0,96,70,41,30.07,29.98,10,2,21,0.00
2013-7-25,73.0,65.4,56.0,63.0,55.6,49.0,93,72,50,30.13,29.96,16,6,26,0.06
2013-7-26,69.0,59.2,50.0,53.0,48.3,44.0,96,70,42,30.29,30.13,10,4,17,0.01
2013-7-27,74.0,59.4,43.0,50.0,45.4,40.0,94,64,35,30.25,30.05,6,2,10,0.00
2013-7-28,76.0,60.8,44.0,51.0,46.7,42.0,94,63,38,30.06,29.94,10,3,17,0.00
2013-7-29,72.0,63.1,54.0,64.0,55.1,47.0,93,76,61,30.01,29.92,10,3,18,0.04
2013-7-30,76.0,63.8,51.0,63.0,58.0,50.0,98,83,56,30.14,30.01,6,2,10,0.03
2013-7-31,78.0,68.1,57.0,59.0,54.6,49.0,96,66,39,30.17,30.04,8,2,16,0.01
2013-8-1,80.0,66.4,49.0,58.0,52.6,47.0,96,65,38,30.08,29.95,8,2,15,0.00
2013-8-2,77.0,66.0,55.0,57.0,52.4,50.0,88,64,41,30.10,29.96,5,1,10,0.00
2013-8-3,80.0,68.4,58.0,60.0,55.3,52.0,86,64,46,30.20,30.09,6,2,13,0.00
2013-8-4,76.0,65.8,60.0,64.0,58.9,54.0,91,79,66,30.19,29.93,10,4,20,0.00
2013-8-5,81.0,67.5,58.0,61.0,58.4,55.0,98,76,42,29.96,29.78,7,2,15,0.00
2013-8-6,78.0,65.5,56.0,63.0,57.9,53.0,95,78,51,29.92,29.72,13,4,25,0.03
2013-8-7,60.0,57.7,57.0,57.0,55.8,54.0,95,93,89,30.00,29.92,5,0,9,0.03
2013-8-11,66.0,63.2,62.0,52.0,51.5,51.0,69,66,61,30.10,30.07,3,2,6,0.19
2013-8-12,83.0,67.1,53.0,55.0,50.6,46.0,90,60,27,30.15,30.10,5,1,9,0.01
2013-8-13,80.0,65.4,52.0,55.0,50.6,-99.9,90,64,38,30.23,30.12,6,2,12,0.00
2013-8-14,61.0,57.9,56.0,50.0,49.1,48.0,77,72,65,30.16,30.14,1,0,5,0.00
2013-8-16,81.0,72.9,66.0,60.0,52.6,-99.9,76,55,46,30.07,30.01,11,7,18,0.00
2013-8-17,90.0,70.8,56.0,69.0,60.4,-99.9,97,74,43,30.02,29.85,11,5,18,0.00
2013-8-18,88.0,75.3,65.0,70.0,65.0,55.0,96,73,39,29.94,29.86,11,4,20,0.00
2013-8-19,96.0,73.1,58.0,69.0,48.6,-99.9,97,61,25,29.91,29.75,9,3,15,0.01
2013-8-20,100.0,80.0,62.0,67.0,57.2,-99.9,86,51,21,29.83,29.73,11,3,19,0.01
2013-8-21,85.0,71.5,61.0,62.0,55.6,49.0,83,60,34,30.11,29.83,8,4,15,0.02
2013-8-22,85.0,72.6,58.0,54.0,50.1,46.0,77,48,29,30.22,30.05,7,2,15,0.02
2013-8-23,89.0,74.6,61.0,70.0,62.5,51.0,85,67,48,30.07,29.77,13,6,26,0.00
2013-8-24,94.0,80.0,71.0,72.0,66.2,-99.9,93,67,38,29.82,29.73,7,2,13,0.00
2013-8-25,98.0,82.3,67.0,69.0,62.9,58.0,89,56,28,29.95,29.81,6,2,10,0.00
2013-8-26,83.0,74.8,69.0,75.0,67.2,61.0,90,78,54,29.94,29.84,6,1,14,0.02
2013-8-27,93.0,72.0,63.0,71.0,64.6,61.0,94,80,39,29.94,29.86,6,1,11,0.02
2013-8-28,94.0,86.6,74.0,71.0,66.6,64.0,72,52,41,29.99,29.90,7,2,13,0.05
2013-8-29,83.0,73.1,67.0,68.0,66.7,65.0,95,81,58,29.98,29.84,18,2,31,1.15
2013-8-30,90.0,74.4,63.0,71.0,66.5,62.0,98,79,47,30.02,29.81,13,3,28,0.60
2013-8-31,78.0,70.7,62.0,66.0,57.5,-99.9,84,66,43,29.96,29.80,13,5,26,0.60
2013-9-1,71.0,62.8,55.0,59.0,55.9,52.0,97,79,60,30.09,29.96,8,3,14,0.00
2013-9-2,83.0,64.6,49.0,60.0,53.9,47.0,97,72,43,30.09,29.94,8,2,13,0.00
2013-9-3,91.0,72.2,59.0,68.0,60.1,55.0,89,68,38,30.01,29.95,4,1,9,0.00
2013-9-4,84.0,69.5,57.0,62.0,56.9,50.0,91,67,43,30.16,30.01,5,2,13,0.00
2013-9-5,91.0,73.9,60.0,68.0,59.2,50.0,76,61,44,30.14,29.94,7,2,14,0.00
2013-9-6,95.0,77.8,64.0,72.0,67.0,62.0,97,72,43,29.97,29.88,6,1,12,0.00
2013-9-7,77.0,69.8,64.0,68.0,62.2,-99.9,92,79,64,30.09,29.92,6,3,19,0.09
2013-9-8,78.0,68.7,62.0,69.0,64.8,61.0,98,88,72,30.04,29.77,7,1,19,0.26
2013-9-9,77.0,69.1,62.0,67.0,64.2,58.0,98,86,60,29.83,29.65,9,3,19,1.00
2013-9-10,81.0,67.5,57.0,62.0,57.5,54.0,95,73,40,30.02,29.83,7,2,16,0.01
2013-9-11,78.0,65.9,54.0,59.0,52.1,46.0,90,65,32,30.22,30.02,8,2,14,0.00
2013-9-12,76.0,60.9,48.0,53.0,48.9,45.0,92,68,38,30.34,30.21,7,2,11,0.00
2013-9-13,81.0,63.3,49.0,56.0,51.2,47.0,95,69,39,30.21,29.87,14,4,23,0.00
2013-9-14,65.0,60.3,59.0,63.0,54.9,-99.9,97,85,61,30.03,29.78,8,2,15,0.90
2013-9-15,68.0,55.1,45.0,54.0,46.7,43.0,95,76,45,30.29,30.03,9,3,18,0.17
2013-9-16,70.0,56.7,44.0,57.0,50.2,42.0,97,80,55,30.27,29.94,15,6,25,0.01
2013-9-17,77.0,63.9,53.0,65.0,57.6,51.0,95,81,64,29.94,29.68,11,6,18,0.01
2013-9-18,66.0,61.8,61.0,63.0,60.0,58.0,98,94,89,29.72,29.56,7,2,14,0.07
2013-9-19,65.0,54.8,50.0,61.0,50.5,46.0,92,85,77,30.03,29.64,12,6,28,0.02
2013-9-20,64.0,51.5,39.0,47.0,42.3,37.0,96,74,41,30.04,29.95,11,4,21,0.02
2013-9-21,73.0,53.8,38.0,50.0,42.7,-99.9,97,72,40,29.97,29.71,9,3,16,0.01
2013-9-22,83.0,64.5,48.0,67.0,55.0,45.0,93,73,51,29.71,29.42,12,4,29,0.01
2013-9-23,73.0,63.2,54.0,62.0,57.1,53.0,97,81,61,29.83,29.44,10,3,22,0.25
2013-9-24,76.0,58.4,46.0,54.0,48.8,44.0,98,75,33,29.93,29.82,6,1,9,0.23
2013-9-25,77.0,65.1,52.0,58.0,53.2,46.0,83,67,44,29.82,29.55,16,6,29,0.01
2013-9-26,68.0,60.7,48.0,59.0,53.9,43.0,93,79,59,29.86,29.49,9,4,19,0.02
2013-9-27,55.0,49.9,43.0,49.0,45.8,40.0,96,86,75,29.88,29.78,12,4,17,0.22
2013-9-28,64.0,52.2,45.0,47.0,41.8,-99.9,96,73,43,29.82,29.73,9,2,20,0.23
2013-9-29,73.0,56.2,41.0,52.0,45.9,39.0,95,71,42,29.79,29.53,12,3,19,0.01
2013-9-30,75.0,60.0,45.0,52.0,47.6,41.0,88,66,41,29.62,29.45,17,4,36,0.05
2013-10-1,64.0,53.9,45.0,39.0,37.1,36.0,73,54,39,29.92,29.88,2,0,4,0.05
2013-10-2,66.0,54.6,42.0,43.0,40.5,37.0,86,61,37,29.98,29.90,10,3,21,0.00
2013-10-3,58.0,51.3,45.0,44.0,39.7,36.0,89,66,45,30.15,29.96,8,4,16,0.00
2013-10-4,48.0,37.6,33.0,41.0,35.4,32.0,97,92,71,30.24,30.04,19,11,36,1.18
2013-10-5,44.0,37.3,34.0,39.0,34.8,32.0,95,91,78,30.04,29.94,20,12,37,2.09
2013-10-6,65.0,45.1,29.0,45.0,36.3,27.0,94,74,45,30.01,29.91,8,3,16,0.01
2013-10-7,70.0,51.5,36.0,52.0,43.7,34.0,97,77,45,29.93,29.65,9,3,18,0.01
2013-10-8,70.0,53.9,41.0,48.0,43.1,38.0,96,70,35,29.83,29.55,11,3,19,0.00
2013-10-9,68.0,53.0,39.0,46.0,38.7,35.0,90,62,30,30.02,29.83,7,2,12,0.00
2013-10-10,68.0,56.3,41.0,55.0,46.6,36.0,92,71,53,29.96,29.61,4,1,8,0.01
2013-10-11,64.0,54.9,45.0,59.0,53.0,43.0,98,93,79,29.65,29.30,20,7,38,0.67
2013-10-12,54.0,45.4,37.0,43.0,34.6,-99.9,94,70,44,30.19,29.56,20,8,35,0.12
2013-10-13,55.0,40.5,28.0,42.0,35.4,27.0,96,83,55,30.32,30.19,6,2,15,0.06
2013-10-14,45.0,42.7,38.0,44.0,40.5,36.0,97,92,83,30.22,29.99,11,7,27,0.53
2013-10-15,48.0,41.1,35.0,40.0,37.0,31.0,96,86,63,30.16,30.06,15,7,25,0.47
2013-10-16,61.0,43.7,31.0,42.0,35.0,29.0,94,74,35,30.06,29.83,7,3,13,0.25
2013-10-17,48.0,41.2,34.0,40.0,33.6,29.0,93,75,54,30.03,29.88,12,6,22,0.08
2013-10-18,47.0,39.1,31.0,39.0,33.9,27.0,95,83,60,29.99,29.77,9,4,23,0.11
2013-10-19,48.0,40.1,34.0,40.0,33.9,-99.9,93,81,67,29.80,29.59,5,2,9,0.01
2013-10-20,45.0,38.3,32.0,44.0,35.4,29.0,96,89,77,29.99,29.56,13,6,24,0.02
2013-10-21,40.0,32.6,25.0,33.0,28.8,24.0,96,87,62,29.99,29.89,5,1,7,0.05
2013-10-22,36.0,33.2,31.0,33.0,31.3,30.0,96,93,83,30.08,29.93,5,1,10,0.10
2013-10-23,40.0,34.5,30.0,33.0,30.8,27.0,96,87,69,30.23,29.99,9,3,15,0.06
2013-10-24,41.0,31.8,25.0,34.0,27.5,23.0,93,85,67,30.32,30.22,8,3,15,0.02
2013-10-25,60.0,49.0,28.0,45.0,35.6,26.0,92,62,41,30.22,29.89,15,8,26,0.01
2013-10-26,47.0,36.6,27.0,31.0,26.8,-99.9,90,71,49,30.24,29.85,11,4,19,0.01
2013-10-27,45.0,37.7,27.0,35.0,30.3,21.0,91,75,61,30.31,29.76,11,5,21,0.00
2013-10-28,33.0,26.1,21.0,22.0,18.8,-99.9,88,77,62,30.48,30.31,8,4,17,0.00
2013-10-29,35.0,29.4,24.0,29.0,23.8,20.0,86,79,73,30.39,30.04,5,2,8,0.00
2013-10-30,39.0,34.3,29.0,35.0,31.2,26.0,93,88,83,30.05,29.65,9,2,12,0.00
2013-10-31,44.0,36.0,28.0,38.0,32.4,27.0,94,87,74,29.65,29.49,11,4,22,0.01
2013-11-1,43.0,38.9,33.0,39.0,34.6,30.0,92,84,74,29.98,29.54,16,6,31,0.02
2013-11-2,56.0,39.5,27.0,37.0,28.9,-99.9,93,70,35,30.03,29.75,5,2,11,0.01
2013-11-3,45.0,40.5,35.0,37.0,33.1,29.0,83,75,67,29.75,29.50,8,2,16,0.00
2013-11-4,41.0,33.9,24.0,29.0,22.9,15.0,84,65,42,30.04,29.65,13,6,25,0.00
2013-11-5,40.0,27.2,18.0,24.0,18.9,14.0,85,72,50,30.17,30.04,8,3,13,0.00
2013-11-6,46.0,31.4,23.0,30.0,23.0,19.0,93,75,37,30.19,30.01,7,2,12,0.00
2013-11-7,47.0,31.1,19.0,30.0,22.4,17.0,91,72,44,30.22,29.97,9,2,16,0.00
2013-11-8,45.0,38.6,29.0,39.0,32.9,23.0,92,80,70,29.95,29.52,19,5,31,0.01
2013-11-9,40.0,33.0,19.0,35.0,24.8,-99.9,90,74,62,30.27,29.75,19,8,31,0.01
2013-11-10,41.0,26.6,17.0,31.0,18.5,0.0,93,73,43,30.35,30.07,14,6,23,0.00
2013-11-11,22.0,14.0,6.0,4.0,1.9,-2.0,82,60,36,30.65,30.35,10,4,17,0.00
2013-11-12,46.0,25.1,9.0,30.0,17.8,3.0,88,74,53,30.65,30.09,10,4,17,0.00
2013-11-13,53.0,42.2,30.0,39.0,34.3,27.0,92,74,56,30.08,29.85,10,3,17,0.00
2013-11-14,49.0,40.4,28.0,37.0,33.4,25.0,91,77,55,29.87,29.74,9,3,19,0.00
2013-11-15,38.0,26.1,22.0,33.0,24.2,20.0,96,92,83,29.74,29.57,5,1,8,0.00
2013-11-17,29.0,29.0,29.0,26.0,26.0,26.0,90,89,88,29.93,29.82,10,4,18,0.02
2013-11-18,42.0,30.2,17.0,32.0,25.4,15.0,95,83,64,30.06,29.91,9,3,14,0.01
2013-11-19,39.0,32.9,29.0,32.0,28.8,26.0,93,85,76,29.90,29.50,8,3,13,0.00
2013-11-20,31.0,20.9,12.0,29.0,16.6,8.0,94,84,74,30.29,29.59,16,9,25,0.00
2013-11-21,12.0,6.6,0.0,8.0,2.2,-3.0,87,81,68,30.58,30.29,14,5,23,0.00
2013-11-22,19.0,9.3,-2.0,15.0,3.9,-6.0,84,78,70,30.77,30.39,13,5,19,0.00
2013-11-23,17.0,3.9,-12.0,11.0,-2.2,-99.9,86,78,64,30.79,30.34,10,3,14,0.00
2013-11-24,44.0,28.4,12.0,30.0,21.2,9.0,90,75,53,30.32,29.82,9,4,17,0.00
2013-11-25,35.0,29.9,23.0,29.0,24.0,17.0,89,79,69,30.27,29.92,18,9,30,0.00
2013-11-26,23.0,14.3,8.0,17.0,9.8,4.0,89,82,71,32.52,30.27,13,5,22,0.00
2013-11-27,35.0,22.0,9.0,24.0,16.8,5.0,87,81,64,30.27,29.85,18,9,29,0.00
2013-11-28,25.0,21.5,16.0,21.0,16.1,13.0,87,79,74,30.35,30.16,11,4,20,0.00
2013-11-29,39.0,24.8,16.0,29.0,20.4,13.0,91,83,63,30.22,29.92,9,3,13,0.00
2013-11-30,38.0,30.3,23.0,31.0,25.4,-99.9,93,85,75,30.13,29.98,5,2,9,0.00
2013-12-1,42.0,29.6,22.0,34.0,26.5,20.0,94,88,72,30.12,29.63,7,2,11,0.01
2013-12-2,32.0,27.2,20.0,31.0,25.7,18.0,96,93,90,29.74,29.48,10,4,18,0.05
2013-12-3,20.0,13.9,9.0,18.0,11.2,6.0,92,89,87,29.96,29.72,11,7,20,0.01
2013-12-4,9.0,6.4,0.0,6.0,3.4,-4.0,89,88,85,30.00,29.88,17,12,32,0.00
2013-12-5,-1.0,-4.3,-7.0,-4.0,-8.2,-11.0,85,83,81,30.31,30.00,13,8,25,0.00
2013-12-6,-5.0,-9.6,-14.0,-9.0,-13.8,-18.0,83,81,79,30.52,30.31,10,4,19,0.00
2013-12-7,-7.0,-14.5,-20.0,-12.0,-20.0,-99.9,83,79,78,30.53,30.27,7,3,13,0.00
2013-12-8,0.0,-7.0,-19.0,-4.0,-11.1,-23.0,85,82,80,30.27,29.93,9,3,16,0.00
2013-12-9,15.0,-1.4,-13.0,12.0,-5.3,-17.0,90,83,80,30.02,29.61,22,7,34,0.00
2013-12-10,18.0,3.5,-7.0,15.0,-0.5,-12.0,89,83,75,30.34,29.85,21,6,29,0.00
2013-12-11,17.0,-1.6,-15.0,13.0,-6.0,-19.0,86,81,75,30.38,30.06,11,3,19,0.00
2013-12-12,30.0,17.1,9.0,25.0,13.3,6.0,90,85,75,30.14,30.00,6,1,12,0.01
2013-12-13,12.0,0.6,-3.0,9.0,-3.0,-7.0,88,84,82,30.24,30.02,7,3,19,0.01
2013-12-14,12.0,4.6,-2.0,6.0,-0.3,-99.9,86,83,77,30.22,30.03,9,3,15,0.00
2013-12-15,8.0,4.3,1.0,5.0,0.9,-3.0,88,85,83,30.03,29.77,7,4,15,0.00
2013-12-16,37.0,27.3,6.0,30.0,22.7,3.0,95,83,73,29.98,29.75,12,6,25,0.04
2013-12-17,32.0,25.4,19.0,27.0,19.3,14.0,84,77,70,30.13,29.68,14,5,26,0.01
2013-12-18,43.0,29.3,10.0,32.0,23.5,6.0,89,80,62,29.99,29.56,16,6,27,0.02
2013-12-19,10.0,1.8,-5.0,6.0,-2.0,-9.0,86,84,79,30.18,29.99,11,5,18,0.01
2013-12-20,4.0,-3.1,-13.0,1.0,-6.8,-17.0,87,84,81,30.10,29.69,8,1,12,0.00
2013-12-21,-1.0,-3.5,-8.0,-5.0,-8.3,-99.9,86,83,83,30.07,29.72,5,2,10,0.00
2013-12-22,-2.0,-6.4,-16.0,-5.0,-10.5,-21.0,85,82,79,30.42,30.06,6,2,9,0.00
2013-12-23,0.0,-13.8,-25.0,-4.0,-17.9,-30.0,85,81,77,30.47,30.04,10,3,16,0.00
2013-12-24,31.0,18.1,0.0,29.0,14.9,-4.0,94,88,84,30.04,29.88,14,6,21,0.00
2013-12-25,32.0,28.3,23.0,31.0,24.4,19.0,96,85,73,30.17,29.96,16,6,25,0.01
2013-12-26,32.0,26.7,20.0,28.0,23.4,18.0,94,87,78,30.03,29.89,13,2,25,0.01
2013-12-27,44.0,35.2,22.0,36.0,30.7,20.0,95,84,71,29.95,29.76,6,2,14,0.04
2013-12-28,36.0,14.1,-6.0,30.0,9.0,-99.9,92,83,78,30.42,29.63,20,9,30,0.01
2013-12-29,7.0,-1.3,-9.0,4.0,-6.1,-13.0,87,79,75,30.43,29.90,8,3,15,0.00
2013-12-30,9.0,4.6,-1.0,6.0,1.0,-5.0,88,85,78,30.18,29.87,10,3,17,0.00
2013-12-31,3.0,-4.1,-9.0,0.0,-8.3,-13.0,88,81,74,30.24,30.09,5,2,12,0.00
2014-1-1,2.0,-4.2,-8.0,-3.0,-8.4,-12.0,84,82,79,30.34,30.19,5,1,9,0.00
2014-1-2,7.0,-4.8,-18.0,4.0,-8.9,-22.0,88,82,75,30.33,29.80,11,3,18,0.00